Time,TemperatureF,DewpointF,PressureIn,WindDirection,WindDirectionDegrees,WindSpeedMPH,WindSpeedGustMPH,Humidity,HourlyPrecipIn,Conditions,Clouds,dailyrainin,SoftwareType,DateUTC
2013-04-25 00:00:00,71.4,69.3,29.93,South,180,0.6,0.0,93,0.00,,SCT300,0.00,VWS V13.01,2013-04-24 14:00:00,
2013-04-25 00:15:00,71.2,69.1,29.93,South,180,0.6,0.0,93,0.00,,SCT300,0.00,VWS V13.01,2013-04-24 14:15:00,
2013-04-25 00:30:00,71.0,69.2,29.93,South,180,0.6,0.0,94,0.00,,SCT300,0.00,VWS V13.01,2013-04-24 14:30:00,
2013-04-25 00:45:00,71.0,69.2,29.92,South,180,0.6,0.0,94,0.00,,SCT300,0.00,VWS V13.01,2013-04-24 14:45:00,
2013-04-25 01:00:00,71.3,69.5,29.92,South,180,0.6,0.0,94,0.00,,SCT300,0.00,VWS V13.01,2013-04-24 15:00:00,
2013-04-25 01:15:00,71.6,69.5,29.91,South,180,0.6,0.0,93,0.00,,SCT300,0.00,VWS V13.01,2013-04-24 15:15:00,
2013-04-25 01:30:00,71.3,69.2,29.91,South,180,0.6,0.0,93,0.00,,SCT300,0.00,VWS V13.01,2013-04-24 15:30:00,
2013-04-25 01:45:00,70.9,69.1,29.91,South,180,0.6,0.0,94,0.00,,SCT300,0.00,VWS V13.01,2013-04-24 15:45:00,
2013-04-25 02:00:00,70.8,69.0,29.91,South,180,0.6,0.0,94,0.00,,SCT300,0.00,VWS V13.01,2013-04-24 16:00:00,
2013-04-25 02:15:00,70.7,68.9,29.91,South,180,0.6,0.0,94,0.00,,SCT300,0.00,VWS V13.01,2013-04-24 16:15:00,
2013-04-25 02:30:00,70.5,68.7,29.90,South,180,0.6,0.0,94,0.00,,SCT300,0.00,VWS V13.01,2013-04-24 16:30:00,
2013-04-25 02:45:00,70.3,68.5,29.90,South,180,0.6,0.0,94,0.00,,SCT300,0.00,VWS V13.01,2013-04-24 16:45:00,
2013-04-25 03:00:00,70.2,68.4,29.90,South,180,0.6,0.0,94,0.00,,SCT300,0.00,VWS V13.01,2013-04-24 17:00:00,
2013-04-25 03:15:00,70.2,68.7,29.91,South,180,0.6,0.0,95,0.00,,SCT300,0.00,VWS V13.01,2013-04-24 17:15:00,
2013-04-25 03:30:00,70.3,68.8,29.91,South,180,0.6,0.0,95,0.00,,SCT300,0.00,VWS V13.01,2013-04-24 17:30:00,
2013-04-25 03:45:00,70.9,69.4,29.91,South,180,0.6,0.0,95,0.00,,SCT300,0.00,VWS V13.01,2013-04-24 17:45:00,
2013-04-25 04:00:00,71.5,69.7,29.91,South,180,0.6,0.0,94,0.00,,SCT300,0.00,VWS V13.01,2013-04-24 18:00:00,
2013-04-25 04:15:00,71.7,69.6,29.91,South,180,0.6,0.0,93,0.00,,SCT300,0.00,VWS V13.01,2013-04-24 18:15:00,
2013-04-25 04:30:00,71.6,69.5,29.91,South,180,0.6,0.0,93,0.00,,SCT300,0.00,VWS V13.01,2013-04-24 18:30:00,
2013-04-25 04:45:00,71.5,69.4,29.91,South,180,0.6,0.0,93,0.00,,SCT300,0.00,VWS V13.01,2013-04-24 18:45:00,
2013-04-25 05:00:00,71.3,69.2,29.92,South,180,0.6,0.0,93,0.00,,SCT300,0.00,VWS V13.01,2013-04-24 19:00:00,
2013-04-25 05:15:00,71.0,68.9,29.92,South,180,0.6,0.0,93,0.00,,SCT300,0.00,VWS V13.01,2013-04-24 19:15:00,
2013-04-25 05:30:00,70.9,68.8,29.93,SE,135,0.6,1.3,93,0.00,,SCT300,0.00,VWS V13.01,2013-04-24 19:30:00,
2013-04-25 05:45:00,70.9,68.8,29.93,SE,135,0.6,1.3,93,0.00,,SCT300,0.00,VWS V13.01,2013-04-24 19:45:00,
2013-04-25 06:00:00,71.0,68.6,29.94,SE,135,0.6,1.3,92,0.00,,SCT300,0.00,VWS V13.01,2013-04-24 20:00:00,
2013-04-25 06:15:00,70.9,68.5,29.95,SSE,158,0.6,1.3,92,0.00,,SCT300,0.00,VWS V13.01,2013-04-24 20:15:00,
2013-04-25 06:30:00,70.6,68.5,29.95,SSE,158,0.6,0.0,93,0.00,,SCT300,0.00,VWS V13.01,2013-04-24 20:30:00,
2013-04-25 06:45:00,70.4,68.3,29.96,SSE,158,0.6,0.0,93,0.00,,SCT300,0.00,VWS V13.01,2013-04-24 20:45:00,
2013-04-25 07:00:00,70.5,68.4,29.97,SSE,158,0.6,0.0,93,0.00,,SCT300,0.00,VWS V13.01,2013-04-24 21:00:00,
2013-04-25 07:15:00,71.1,69.3,29.97,SSE,158,0.6,0.0,94,0.00,,SCT300,0.00,VWS V13.01,2013-04-24 21:15:00,
2013-04-25 07:30:00,72.7,69.3,29.97,SE,135,0.6,1.3,89,0.00,,SCT300,0.00,VWS V13.01,2013-04-24 21:30:00,
2013-04-25 07:45:00,74.0,69.9,29.98,SE,135,0.6,2.5,87,0.00,,SCT300,0.00,VWS V13.01,2013-04-24 21:45:00,
2013-04-25 08:00:00,74.8,70.0,29.98,SE,135,0.6,1.3,85,0.00,,SCT300,0.00,VWS V13.01,2013-04-24 22:00:00,
2013-04-25 08:20:00,75.5,70.3,29.99,SE,135,1.9,3.8,84,0.00,,SCT300,0.00,VWS V13.01,2013-04-24 22:20:00,
2013-04-25 08:21:00,77.4,71.1,29.99,SE,133,4.4,4.4,81,0.00,,SCT300,0.00,VWS V13.01,2013-04-24 22:21:00,
2013-04-25 08:26:00,78.2,71.2,29.99,SE,143,4.4,4.4,79,0.00,,SCT300,0.00,VWS V13.01,2013-04-24 22:26:00,
2013-04-25 08:31:00,78.7,71.6,29.99,ESE,119,3.1,3.8,79,0.00,,FEW025,0.00,VWS V13.01,2013-04-24 22:31:00,
2013-04-25 08:36:00,79.3,71.8,29.99,SSE,157,1.9,3.8,78,0.00,,FEW025,0.00,VWS V13.01,2013-04-24 22:36:00,
2013-04-25 08:41:00,79.8,71.6,29.99,SE,133,1.9,3.8,76,0.00,,FEW025,0.00,VWS V13.01,2013-04-24 22:41:00,
2013-04-25 08:46:00,80.0,71.8,29.98,SE,128,5.6,5.6,76,0.00,,FEW025,0.00,VWS V13.01,2013-04-24 22:46:00,
2013-04-25 08:51:00,80.1,71.5,29.98,SE,132,3.1,3.8,75,0.00,,FEW025,0.00,VWS V13.01,2013-04-24 22:51:00,
2013-04-25 08:56:00,80.3,71.7,29.99,SSE,155,3.1,3.8,75,0.00,,FEW025,0.00,VWS V13.01,2013-04-24 22:56:00,
2013-04-25 09:01:00,80.8,72.1,29.99,ESE,106,6.9,6.9,75,0.00,,FEW025,0.00,VWS V13.01,2013-04-24 23:01:00,
2013-04-25 09:06:00,80.8,71.7,29.99,SSE,147,1.9,3.8,74,0.00,,FEW025,0.00,VWS V13.01,2013-04-24 23:06:00,
2013-04-25 09:11:00,81.5,72.4,29.99,SE,140,3.1,3.8,74,0.00,,FEW025,0.00,VWS V13.01,2013-04-24 23:11:00,
2013-04-25 09:15:00,82.0,71.7,29.99,SSE,149,3.1,3.8,71,0.00,,FEW025,0.00,VWS V13.01,2013-04-24 23:15:00,
2013-04-25 09:30:00,82.4,71.2,29.99,SE,135,3.1,7.5,69,0.00,,FEW025,0.00,VWS V13.01,2013-04-24 23:30:00,
2013-04-25 09:31:00,82.9,71.7,29.99,SE,136,3.1,3.8,69,0.00,,FEW025,0.00,VWS V13.01,2013-04-24 23:31:00,
2013-04-25 09:45:00,83.6,72.4,30.00,SE,135,4.4,8.7,69,0.00,,FEW025,0.00,VWS V13.01,2013-04-24 23:45:00,
2013-04-25 10:00:00,84.7,72.1,29.99,SE,135,3.1,10.0,66,0.00,,FEW025,0.00,VWS V13.01,2013-04-25 00:00:00,
2013-04-25 10:15:00,84.3,72.2,29.99,SE,135,3.1,13.7,67,0.00,,FEW025,0.00,VWS V13.01,2013-04-25 00:15:00,
2013-04-25 10:30:00,83.3,71.2,29.99,SE,135,4.4,8.7,67,0.00,,FEW025,0.00,VWS V13.01,2013-04-25 00:30:00,
2013-04-25 10:45:00,83.2,70.2,29.99,SE,135,3.1,10.0,65,0.00,,FEW025,0.00,VWS V13.01,2013-04-25 00:45:00,
2013-04-25 11:00:00,85.0,71.0,29.98,SE,135,4.4,10.0,63,0.00,,FEW025,0.00,VWS V13.01,2013-04-25 01:00:00,
2013-04-25 11:15:00,84.8,70.3,29.98,SE,135,4.4,10.0,62,0.00,,FEW025,0.00,VWS V13.01,2013-04-25 01:15:00,
2013-04-25 11:30:00,85.5,69.1,29.97,SE,135,3.1,12.5,58,0.00,,FEW025,0.00,VWS V13.01,2013-04-25 01:30:00,
2013-04-25 11:45:00,85.0,70.1,29.96,SE,135,3.1,10.0,61,0.00,,FEW025,0.00,VWS V13.01,2013-04-25 01:45:00,
2013-04-25 12:00:00,85.0,69.6,29.95,SE,135,3.1,11.3,60,0.00,,FEW025,0.00,VWS V13.01,2013-04-25 02:00:00,
2013-04-25 12:15:00,86.3,69.8,29.95,SE,135,4.4,11.3,58,0.00,,FEW025,0.00,VWS V13.01,2013-04-25 02:15:00,
2013-04-25 12:30:00,86.7,69.1,29.94,SE,135,5.6,12.5,56,0.00,,FEW025,0.00,VWS V13.01,2013-04-25 02:30:00,
2013-04-25 12:45:00,86.5,69.5,29.93,SE,135,4.4,10.0,57,0.00,,FEW025,0.00,VWS V13.01,2013-04-25 02:45:00,
2013-04-25 13:00:00,86.3,70.8,29.92,SE,135,4.4,13.7,60,0.00,,FEW025,0.00,VWS V13.01,2013-04-25 03:00:00,
2013-04-25 13:15:00,86.8,70.3,29.92,SE,135,5.6,13.7,58,0.00,,FEW025,0.00,VWS V13.01,2013-04-25 03:15:00,
2013-04-25 13:30:00,86.6,69.1,29.91,SE,135,5.6,16.3,56,0.00,,FEW025,0.00,VWS V13.01,2013-04-25 03:30:00,
2013-04-25 13:45:00,85.4,69.9,29.91,East,90,8.1,17.5,60,0.00,,FEW025,0.00,VWS V13.01,2013-04-25 03:45:00,
2013-04-25 14:00:00,85.0,70.1,29.90,East,90,6.9,16.3,61,0.00,,FEW025,0.00,VWS V13.01,2013-04-25 04:00:00,
2013-04-25 14:15:00,85.0,71.0,29.90,East,90,6.9,16.3,63,0.00,,FEW025,0.00,VWS V13.01,2013-04-25 04:15:00,
2013-04-25 14:30:00,85.2,70.7,29.89,East,90,6.9,15.0,62,0.00,,FEW025,0.00,VWS V13.01,2013-04-25 04:30:00,
2013-04-25 14:45:00,85.4,70.9,29.89,ESE,112,5.6,13.7,62,0.00,,FEW025,0.00,VWS V13.01,2013-04-25 04:45:00,
2013-04-25 15:00:00,85.3,71.3,29.89,East,90,6.9,16.3,63,0.00,,FEW025,0.00,VWS V13.01,2013-04-25 05:00:00,
2013-04-25 15:15:00,85.5,71.9,29.89,ESE,112,5.6,13.7,64,0.00,,FEW025,0.00,VWS V13.01,2013-04-25 05:15:00,
2013-04-25 15:30:00,84.7,70.7,29.89,East,90,6.9,16.3,63,0.00,,FEW025,0.00,VWS V13.01,2013-04-25 05:30:00,
2013-04-25 15:45:00,84.4,70.9,29.89,East,90,6.9,15.0,64,0.00,,FEW025,0.00,VWS V13.01,2013-04-25 05:45:00,
2013-04-25 16:00:00,84.4,70.4,29.89,ESE,112,4.4,11.3,63,0.00,,FEW025,0.00,VWS V13.01,2013-04-25 06:00:00,
2013-04-25 16:15:00,84.3,71.3,29.90,SE,135,5.6,13.7,65,0.00,,FEW025,0.00,VWS V13.01,2013-04-25 06:15:00,
2013-04-25 16:30:00,84.0,71.0,29.90,SE,135,4.4,11.3,65,0.00,,FEW025,0.00,VWS V13.01,2013-04-25 06:30:00,
2013-04-25 16:45:00,83.7,71.6,29.90,SE,135,3.1,11.3,67,0.00,,FEW025,0.00,VWS V13.01,2013-04-25 06:45:00,
2013-04-25 17:00:00,83.5,71.4,29.91,SE,135,4.4,10.0,67,0.00,,FEW025,0.00,VWS V13.01,2013-04-25 07:00:00,
2013-04-25 17:15:00,82.6,71.0,29.91,SE,135,4.4,8.7,68,0.00,,FEW025,0.00,VWS V13.01,2013-04-25 07:15:00,
2013-04-25 17:30:00,82.0,70.4,29.91,SE,135,3.1,7.5,68,0.00,,FEW025,0.00,VWS V13.01,2013-04-25 07:30:00,
2013-04-25 17:45:00,81.0,70.7,29.92,SE,135,4.4,8.7,71,0.00,,FEW025,0.00,VWS V13.01,2013-04-25 07:45:00,
2013-04-25 18:00:00,80.3,70.9,29.92,SE,135,3.1,10.0,73,0.00,,FEW025,0.00,VWS V13.01,2013-04-25 08:00:00,
2013-04-25 18:15:00,79.7,70.7,29.93,SE,135,1.9,5.0,74,0.00,,FEW025,0.00,VWS V13.01,2013-04-25 08:15:00,
2013-04-25 18:30:00,79.0,70.4,29.93,SE,135,1.9,5.0,75,0.00,,FEW025,0.00,VWS V13.01,2013-04-25 08:30:00,
2013-04-25 18:45:00,78.5,69.9,29.94,SE,135,1.9,6.2,75,0.00,,FEW025,0.00,VWS V13.01,2013-04-25 08:45:00,
2013-04-25 19:00:00,78.3,70.1,29.94,SE,135,1.9,5.0,76,0.00,,FEW025,0.00,VWS V13.01,2013-04-25 09:00:00,
2013-04-25 19:15:00,77.8,70.0,29.95,SSE,158,0.6,2.5,77,0.00,,FEW025,0.00,VWS V13.01,2013-04-25 09:15:00,
2013-04-25 19:30:00,77.3,69.9,29.96,SSE,158,0.6,3.8,78,0.00,,FEW025,0.00,VWS V13.01,2013-04-25 09:30:00,
2013-04-25 19:45:00,76.7,69.7,29.97,SE,135,0.6,2.5,79,0.00,,FEW025,0.00,VWS V13.01,2013-04-25 09:45:00,
2013-04-25 20:00:00,76.3,70.1,29.98,SE,135,0.6,0.0,81,0.00,,FEW025,0.00,VWS V13.01,2013-04-25 10:00:00,
2013-04-25 20:15:00,75.5,70.0,29.99,SE,135,0.6,0.0,83,0.00,,FEW025,0.00,VWS V13.01,2013-04-25 10:15:00,
2013-04-25 20:30:00,74.7,69.9,29.99,SSE,158,0.6,1.3,85,0.00,,FEW025,0.00,VWS V13.01,2013-04-25 10:30:00,
2013-04-25 20:45:00,74.1,69.7,29.99,SSE,158,0.6,0.0,86,0.00,,FEW025,0.00,VWS V13.01,2013-04-25 10:45:00,
2013-04-25 21:00:00,73.7,69.6,30.00,SSE,158,0.6,0.0,87,0.00,,FEW025,0.00,VWS V13.01,2013-04-25 11:00:00,
2013-04-25 21:15:00,73.3,69.5,30.00,SSE,158,0.6,0.0,88,0.00,,FEW025,0.00,VWS V13.01,2013-04-25 11:15:00,
2013-04-25 21:30:00,73.2,69.4,30.00,SE,135,0.6,2.5,88,0.00,,FEW025,0.00,VWS V13.01,2013-04-25 11:30:00,
2013-04-25 21:45:00,73.6,69.2,30.00,SE,135,0.6,1.3,86,0.00,,FEW025,0.00,VWS V13.01,2013-04-25 11:45:00,
2013-04-25 22:00:00,74.5,69.3,30.00,SE,135,0.6,1.3,84,0.00,,FEW025,0.00,VWS V13.01,2013-04-25 12:00:00,
2013-04-25 22:15:00,74.6,69.1,30.00,SE,135,0.6,2.5,83,0.00,,FEW025,0.00,VWS V13.01,2013-04-25 12:15:00,
2013-04-25 22:30:00,75.0,69.1,30.00,SE,135,0.6,5.0,82,0.00,,FEW025,0.00,VWS V13.01,2013-04-25 12:30:00,
2013-04-25 22:45:00,75.3,69.4,29.99,SE,135,1.9,5.0,82,0.00,,FEW025,0.00,VWS V13.01,2013-04-25 12:45:00,
2013-04-25 23:00:00,75.4,69.5,29.99,SE,135,1.9,3.8,82,0.00,,FEW025,0.00,VWS V13.01,2013-04-25 13:00:00,
2013-04-25 23:15:00,75.1,69.2,29.99,SE,135,0.6,2.5,82,0.00,,FEW025,0.00,VWS V13.01,2013-04-25 13:15:00,
2013-04-25 23:30:00,74.8,69.3,29.99,SE,135,0.6,2.5,83,0.00,,FEW025,0.00,VWS V13.01,2013-04-25 13:30:00,
2013-04-25 23:45:00,74.7,68.8,29.99,SE,135,1.9,3.8,82,0.00,,FEW025,0.00,VWS V13.01,2013-04-25 13:45:00,